User: anonymous   Login
Location: Bois de la Silve
(44.4667°N, 6.7833°E)
Time: 13:13:40
(UTC+00:00)
Language:

Cosmos 1447 Rocket - Orbit

View from above orbital plane
View from above orbital plane
View from above satellite
View from above satellite

Ground track
Ground track

The orbit data is extracted from the following two-line orbital elements,

1 13917U 83021B   20262.64038436 +.00000130 +00000-0 +11639-3 0  9998
2 13917 082.9397 083.0438 0028967 159.3592 269.0925 13.76856221883006
Epoch (UTC): 18 September 2020 15:22:09
Eccentricity: 0.0028967
inclination: 82.9397°
perigee height: 954 km
apogee height: 996 km
right ascension of ascending node: 83.0438°
argument of perigee: 159.3592°
revolutions per day: 13.76856221
mean anomaly at epoch: 269.0925°
orbit number at epoch: 88300

The dashed part of the orbit path shows where the satellite is in the earth's shadow,  

DLR